Rogers, AR

10:02 PM CDT on March 27, 2017 (GMT -0500)
Rogers Municipal-Carter

Weather History for KROG - January, 2012

Change the Weather History Date:

Tuesday, January 31, 2012

  Actual Average Record
Temperature  
Mean Temperature 59 °F -  
Max Temperature 63 °F 44 °F 68 °F (2017)
Min Temperature 55 °F 27 °F 10 °F (2000)
Degree Days  
Heating Degree Days 6    
Growing Degree Days 9 (Base 50)    
Moisture  
Dew Point 50 °F    
Average Humidity 76    
Maximum Humidity 94    
Minimum Humidity 57    
Precipitation  
Precipitation 0.00 in - - ()
Sea Level Pressure  
Sea Level Pressure 30.01 in    
Wind  
Wind Speed 17 mph (SSW)    
Max Wind Speed 25 mph    
Max Gust Speed 37 mph    
Visibility 10 miles    
Events Rain    
Averages and records for this station are not official NWS values.
T = Trace of Precipitation, MM = Missing Value Source: NWS Daily Summary

Daily Weather History Graph

Daily Weather History Graph

Search for Another Location

Airport or City:

Trip Planner

Search our weather history database for the weather conditions in past years. The results will help you decide how hot, cold, wet, or windy it might be!

Date:

Astronomy

Jan. 31, 2012 Rise Set
Actual Time 7:18 AM CST 5:41 PM CST
Civil Twilight 6:51 AM CST 6:08 PM CST
Nautical Twilight 6:20 AM CST 6:39 PM CST
Astronomical Twilight 5:50 AM CST 7:09 PM CST
Moon 11:33 AM CST (1/31) 1:06 AM CST (1/31)
Length of Visible Light 11h 16m
Length of Day
10h 22m
First Quarter, 55% of the Moon is Illuminated
Jan 31
First Quarter
Feb 7
Full
Feb 14
Last Quarter
Feb 21
New
Feb 29
First Quarter

Hourly Weather History & Observations

Time (CST) Temp. Dew Point Humidity Pressure Visibility Wind Dir Wind Speed Gust Speed Precip Events Conditions
12:57 AM 57.0 °F 42.1 °F 57% 30.03 in 10.0 mi South 18.4 mph 25.3 mph N/A   Overcast
1:44 AM 55.4 °F 44.6 °F 67% 30.04 in 10.0 mi South 16.1 mph - N/A   Overcast
1:57 AM 57.0 °F 44.1 °F 62% 30.02 in 10.0 mi South 17.3 mph 21.9 mph N/A   Overcast
2:54 AM 55.4 °F 46.4 °F 72% 30.01 in 10.0 mi South 16.1 mph 23.0 mph N/A   Overcast
2:57 AM 55.9 °F 46.0 °F 69% 30.00 in 10.0 mi South 15.0 mph 23.0 mph N/A   Overcast
3:12 AM 57.2 °F 46.4 °F 67% 30.01 in 10.0 mi South 16.1 mph - N/A   Overcast
3:16 AM 57.2 °F 46.4 °F 67% 30.01 in 10.0 mi SSW 17.3 mph 24.2 mph N/A   Overcast
3:21 AM 57.2 °F 46.4 °F 67% 30.01 in 10.0 mi South 18.4 mph 25.3 mph N/A   Overcast
3:57 AM 57.0 °F 46.9 °F 69% 29.99 in 10.0 mi SSW 18.4 mph - N/A   Overcast
5:57 AM 57.0 °F 48.9 °F 74% 30.00 in 10.0 mi SSW 16.1 mph 27.6 mph N/A   Overcast
6:57 AM 55.9 °F 50.0 °F 80% 30.01 in 10.0 mi SSW 16.1 mph 25.3 mph N/A   Overcast
7:39 AM 55.4 °F 51.8 °F 88% 30.02 in 10.0 mi South 18.4 mph 27.6 mph N/A   Overcast
7:57 AM 55.9 °F 52.0 °F 87% 30.01 in 10.0 mi South 20.7 mph 27.6 mph N/A   Overcast
8:57 AM 55.9 °F 52.0 °F 87% 30.01 in 10.0 mi South 17.3 mph 26.5 mph N/A   Overcast
9:57 AM 59.0 °F 53.1 °F 81% 29.99 in 10.0 mi South 25.3 mph 32.2 mph N/A   Overcast
10:15 AM 59.0 °F 53.6 °F 82% 30.01 in 10.0 mi South 25.3 mph 36.8 mph N/A   Overcast
10:57 AM 59.0 °F 53.1 °F 81% 30.00 in 10.0 mi SSW 21.9 mph 29.9 mph N/A   Overcast
11:57 AM 60.1 °F 53.1 °F 78% 29.98 in 10.0 mi SSW 23.0 mph 31.1 mph N/A   Overcast
1:57 PM 62.1 °F 53.1 °F 72% 29.94 in 10.0 mi SSW 16.1 mph 26.5 mph N/A   Overcast
2:57 PM 63.0 °F 53.1 °F 70% 29.94 in 10.0 mi SSW 18.4 mph 25.3 mph N/A   Overcast
3:57 PM 63.0 °F 53.1 °F 70% 29.95 in 10.0 mi SSW 15.0 mph 19.6 mph N/A   Overcast
4:11 PM 62.6 °F 53.6 °F 72% 29.97 in 10.0 mi SSW 13.8 mph 23.0 mph N/A   Overcast
4:37 PM 62.6 °F 53.6 °F 72% 29.98 in 10.0 mi SSW 15.0 mph 20.7 mph N/A   Overcast
5:17 PM 62.6 °F 53.6 °F 72% 29.99 in 10.0 mi SSW 11.5 mph - N/A   Overcast
5:57 PM 57.9 °F 52.0 °F 81% 29.98 in 10.0 mi South 11.5 mph - N/A   Scattered Clouds
7:57 PM 55.9 °F 52.0 °F 87% 30.03 in 10.0 mi South 10.4 mph - N/A   Clear
8:57 PM 55.0 °F 51.1 °F 86% 30.04 in 10.0 mi South 8.1 mph - N/A   Partly Cloudy
9:57 PM 55.0 °F 52.0 °F 89% 30.04 in 10.0 mi South 9.2 mph - N/A   Clear
10:57 PM 55.9 °F 53.1 °F 90% 30.05 in 10.0 mi WNW 5.8 mph - N/A   Mostly Cloudy
11:11 PM 55.4 °F 51.8 °F 88% 30.07 in 10.0 mi WNW 5.8 mph - N/A   Mostly Cloudy
11:51 PM 55.4 °F 53.6 °F 94% 30.07 in 10.0 mi Calm Calm - 0.00 in Rain Light Rain
11:57 PM 55.0 °F 53.1 °F 93% 30.06 in 10.0 mi WSW 4.6 mph - 0.00 in Rain Light Rain